Year,Month,Day,Hour,Minute,Value (Times are PST for temperature in C)
2011,01,13,00,00,4.80
2011,01,13,00,01,4.80
2011,01,13,00,02,4.80
2011,01,13,00,03,4.80
2011,01,13,00,04,4.80
2011,01,13,00,05,4.80
2011,01,13,00,06,4.80
2011,01,13,00,07,4.80
2011,01,13,00,08,4.80
2011,01,13,00,09,4.80
2011,01,13,00,10,4.80
2011,01,13,00,11,4.80
2011,01,13,00,12,4.80
2011,01,13,00,13,4.80
2011,01,13,00,14,4.80
2011,01,13,00,15,4.80
2011,01,13,00,16,4.80
2011,01,13,00,17,4.80
2011,01,13,00,18,4.80
2011,01,13,00,19,4.80
2011,01,13,00,20,4.80
2011,01,13,00,21,4.80
2011,01,13,00,22,4.80
2011,01,13,00,23,4.80
2011,01,13,00,24,4.80
2011,01,13,00,25,4.80
2011,01,13,00,26,4.80
2011,01,13,00,27,4.80
2011,01,13,00,28,4.80
2011,01,13,00,29,4.80
2011,01,13,00,30,4.80
2011,01,13,00,31,4.80
2011,01,13,00,32,4.80
2011,01,13,00,33,4.80
2011,01,13,00,34,4.80
2011,01,13,00,35,4.80
2011,01,13,00,36,4.80
2011,01,13,00,37,4.80
2011,01,13,00,38,4.80
2011,01,13,00,39,4.80
2011,01,13,00,40,4.80
2011,01,13,00,41,4.90
2011,01,13,00,42,4.90
2011,01,13,00,43,4.90
2011,01,13,00,44,4.90
2011,01,13,00,45,4.90
2011,01,13,00,46,4.90
2011,01,13,00,47,4.90
2011,01,13,00,48,4.90
2011,01,13,00,49,4.90
2011,01,13,00,50,4.90
2011,01,13,00,51,4.90
2011,01,13,00,52,4.90
2011,01,13,00,53,4.90
2011,01,13,00,54,4.90
2011,01,13,00,55,4.90
2011,01,13,00,56,4.90
2011,01,13,00,57,4.90
2011,01,13,00,58,4.90
2011,01,13,00,59,4.90
2011,01,13,01,00,4.90
2011,01,13,01,01,4.90
2011,01,13,01,02,4.90
2011,01,13,01,03,4.90
2011,01,13,01,04,5.00
2011,01,13,01,05,5.10
2011,01,13,01,06,5.10
2011,01,13,01,07,5.10
2011,01,13,01,08,5.10
2011,01,13,01,09,5.10
2011,01,13,01,10,5.10
2011,01,13,01,11,5.10
2011,01,13,01,12,5.10
2011,01,13,01,13,5.10
2011,01,13,01,14,5.20
2011,01,13,01,15,5.20
2011,01,13,01,16,5.20
2011,01,13,01,17,5.30
2011,01,13,01,18,5.30
2011,01,13,01,19,5.30
2011,01,13,01,20,5.30
2011,01,13,01,21,5.30
2011,01,13,01,22,5.30
2011,01,13,01,23,5.40
2011,01,13,01,24,5.40
2011,01,13,01,25,5.40
2011,01,13,01,26,5.40
2011,01,13,01,27,5.40
2011,01,13,01,28,5.50
2011,01,13,01,29,5.50
2011,01,13,01,30,5.50
2011,01,13,01,31,5.50
2011,01,13,01,32,5.50
2011,01,13,01,33,5.50
2011,01,13,01,34,5.50
2011,01,13,01,35,5.50
2011,01,13,01,36,5.50
2011,01,13,01,37,5.50
2011,01,13,01,38,5.50
2011,01,13,01,39,5.50
2011,01,13,01,40,5.60
2011,01,13,01,41,5.60
2011,01,13,01,42,5.60
2011,01,13,01,43,5.60
2011,01,13,01,44,5.60
2011,01,13,01,45,5.70
2011,01,13,01,46,5.70
2011,01,13,01,47,5.70
2011,01,13,01,48,5.70
2011,01,13,01,49,5.80
2011,01,13,01,50,5.90
2011,01,13,01,51,6.00
2011,01,13,01,52,6.00
2011,01,13,01,53,6.10
2011,01,13,01,54,6.10
2011,01,13,01,55,6.20
2011,01,13,01,56,6.20
2011,01,13,01,57,6.20
2011,01,13,01,58,6.30
2011,01,13,01,59,6.30
2011,01,13,02,00,6.40
2011,01,13,02,01,6.40
2011,01,13,02,02,6.40
2011,01,13,02,03,6.40
2011,01,13,02,04,6.40
2011,01,13,02,05,6.40
2011,01,13,02,06,6.40
2011,01,13,02,07,6.40
2011,01,13,02,08,6.40
2011,01,13,02,09,6.40
2011,01,13,02,10,6.40
2011,01,13,02,11,6.40
2011,01,13,02,12,6.40
2011,01,13,02,13,6.40
2011,01,13,02,14,6.40
2011,01,13,04,47,5.40
2011,01,13,04,48,5.40
2011,01,13,04,49,5.40
2011,01,13,04,50,5.40
2011,01,13,04,51,5.40
2011,01,13,04,52,5.40
2011,01,13,04,53,5.40
2011,01,13,04,54,5.40
2011,01,13,04,55,5.40
2011,01,13,04,56,5.40
2011,01,13,04,57,5.40
2011,01,13,04,58,5.40
2011,01,13,04,59,5.40
2011,01,13,05,00,5.40
2011,01,13,05,01,5.40
2011,01,13,05,02,5.40
2011,01,13,05,03,5.40
2011,01,13,05,04,5.40
2011,01,13,05,05,5.40
2011,01,13,05,06,5.30
2011,01,13,05,07,5.30
2011,01,13,05,08,5.30
2011,01,13,05,09,5.30
2011,01,13,05,10,5.30
2011,01,13,05,11,5.30
2011,01,13,05,12,5.30
2011,01,13,05,13,5.30
2011,01,13,05,14,5.30
2011,01,13,05,15,5.30
2011,01,13,05,16,5.30
2011,01,13,05,17,5.30
2011,01,13,05,18,5.30
2011,01,13,05,19,5.30
2011,01,13,05,20,5.30
2011,01,13,05,21,5.30
2011,01,13,05,22,5.30
2011,01,13,05,23,5.30
2011,01,13,05,24,5.30
2011,01,13,05,25,5.30
2011,01,13,05,26,5.30
2011,01,13,05,27,5.20
2011,01,13,05,28,5.20
2011,01,13,05,29,5.20
2011,01,13,05,30,5.20
2011,01,13,05,31,5.20
2011,01,13,05,32,5.20
2011,01,13,05,33,5.20
2011,01,13,05,34,5.20
2011,01,13,05,35,5.20
2011,01,13,05,36,5.20
2011,01,13,05,37,5.20
2011,01,13,05,38,5.20
2011,01,13,05,39,5.20
2011,01,13,05,40,5.20
2011,01,13,05,41,5.20
2011,01,13,05,42,5.20
2011,01,13,05,43,5.20
2011,01,13,05,44,5.20
2011,01,13,05,45,5.20
2011,01,13,05,46,5.20
2011,01,13,05,47,5.20
2011,01,13,05,48,5.20
2011,01,13,05,49,5.20
2011,01,13,05,50,5.20
2011,01,13,05,51,5.20
2011,01,13,05,52,5.20
2011,01,13,05,53,5.20
2011,01,13,05,54,5.20
2011,01,13,05,55,5.20
2011,01,13,05,56,5.20
2011,01,13,05,57,5.20
2011,01,13,05,58,5.20
2011,01,13,05,59,5.20
2011,01,13,06,00,5.20
2011,01,13,06,01,5.20
2011,01,13,06,02,5.20
2011,01,13,06,03,5.20
2011,01,13,06,04,5.20
2011,01,13,06,05,5.20
2011,01,13,06,06,5.20
2011,01,13,06,07,5.20
2011,01,13,06,08,5.20
2011,01,13,06,09,5.30
2011,01,13,06,10,5.30
2011,01,13,06,11,5.20
2011,01,13,06,12,5.20
2011,01,13,06,13,5.20
2011,01,13,06,14,5.20
2011,01,13,06,15,5.20
2011,01,13,06,16,5.20
2011,01,13,06,17,5.20
2011,01,13,06,18,5.20
2011,01,13,06,19,5.20
2011,01,13,06,20,5.20
2011,01,13,06,21,5.30
2011,01,13,06,22,5.20
2011,01,13,06,23,5.30
2011,01,13,06,24,5.20
2011,01,13,06,25,5.20
2011,01,13,06,26,5.20
2011,01,13,06,27,5.20
2011,01,13,06,28,5.20
2011,01,13,06,29,5.20
2011,01,13,06,30,5.20
2011,01,13,06,31,5.30
2011,01,13,06,32,5.30
2011,01,13,06,33,5.30
2011,01,13,06,34,5.30
2011,01,13,06,35,5.30
2011,01,13,06,36,5.30
2011,01,13,06,37,5.30
2011,01,13,06,38,5.30
2011,01,13,06,39,5.30
2011,01,13,06,40,5.30
2011,01,13,06,41,5.30
2011,01,13,06,42,5.30
2011,01,13,06,43,5.30
2011,01,13,06,44,5.30
2011,01,13,06,45,5.30
2011,01,13,06,46,5.30
2011,01,13,06,47,5.30
2011,01,13,06,48,5.30
2011,01,13,06,49,5.30
2011,01,13,06,50,5.30
2011,01,13,06,51,5.30
2011,01,13,06,52,5.30
2011,01,13,06,53,5.30
2011,01,13,06,54,5.30
2011,01,13,06,55,5.30
2011,01,13,06,56,5.30
2011,01,13,06,57,5.30
2011,01,13,06,58,5.30
2011,01,13,06,59,5.30
2011,01,13,07,00,5.30
2011,01,13,07,01,5.30
2011,01,13,07,02,5.30
2011,01,13,07,03,5.30
2011,01,13,07,04,5.30
2011,01,13,07,05,5.30
2011,01,13,07,06,5.30
2011,01,13,07,07,5.30
2011,01,13,07,08,5.30
2011,01,13,07,09,5.30
2011,01,13,07,10,5.30
2011,01,13,07,11,5.30
2011,01,13,07,12,5.30
2011,01,13,07,13,5.30
2011,01,13,07,14,5.30
2011,01,13,07,15,5.30
2011,01,13,07,16,5.30
2011,01,13,07,17,5.30
2011,01,13,07,18,5.30
2011,01,13,07,19,5.30
2011,01,13,07,20,5.30
2011,01,13,07,21,5.30
2011,01,13,07,22,5.30
2011,01,13,07,23,5.30
2011,01,13,07,24,5.30
2011,01,13,07,25,5.30
2011,01,13,07,26,5.30
2011,01,13,07,27,5.30
2011,01,13,07,28,5.30
2011,01,13,07,29,5.30
2011,01,13,07,30,5.30
2011,01,13,07,31,5.30
2011,01,13,07,32,5.30
2011,01,13,07,33,5.30
2011,01,13,07,34,5.30
2011,01,13,07,35,5.30
2011,01,13,07,36,5.30
2011,01,13,07,37,5.30
2011,01,13,07,38,5.30
2011,01,13,07,39,5.30
2011,01,13,07,40,5.30
2011,01,13,07,41,5.30
2011,01,13,07,42,5.30
2011,01,13,07,43,5.30
2011,01,13,07,44,5.30
2011,01,13,07,45,5.30
2011,01,13,07,46,5.30
2011,01,13,07,47,5.30
2011,01,13,07,48,5.30
2011,01,13,07,49,5.30
2011,01,13,07,50,5.30
2011,01,13,07,51,5.30
2011,01,13,07,52,5.30
2011,01,13,07,53,5.30
2011,01,13,07,54,5.30
2011,01,13,07,55,5.30
2011,01,13,07,56,5.30
2011,01,13,07,57,5.30
2011,01,13,07,58,5.30
2011,01,13,07,59,5.30
2011,01,13,08,00,5.30
2011,01,13,08,01,5.30
2011,01,13,08,02,5.30
2011,01,13,08,03,5.30
2011,01,13,08,04,5.30
2011,01,13,08,05,5.30
2011,01,13,08,06,5.30
2011,01,13,08,07,5.30
2011,01,13,08,08,5.30
2011,01,13,08,09,5.30
2011,01,13,08,10,5.30
2011,01,13,08,11,5.30
2011,01,13,08,12,5.30
2011,01,13,08,13,5.30
2011,01,13,08,14,5.30
2011,01,13,08,15,5.30
2011,01,13,08,16,5.30
2011,01,13,08,17,5.30
2011,01,13,08,18,5.30
2011,01,13,08,19,5.30
2011,01,13,08,20,5.30
2011,01,13,08,21,5.30
2011,01,13,08,22,5.30
2011,01,13,08,23,5.30
2011,01,13,08,24,5.30
2011,01,13,08,25,5.30
2011,01,13,08,26,5.30
2011,01,13,08,27,5.30
2011,01,13,08,28,5.30
2011,01,13,08,29,5.30
2011,01,13,08,30,5.30
2011,01,13,08,31,5.30
2011,01,13,08,32,5.30
2011,01,13,08,33,5.30
2011,01,13,08,34,5.30
2011,01,13,08,35,5.30
2011,01,13,08,36,5.30
2011,01,13,08,37,5.30
2011,01,13,08,38,5.30
2011,01,13,08,39,5.30
2011,01,13,08,40,5.30
2011,01,13,08,41,5.30
2011,01,13,08,42,5.30
2011,01,13,08,43,5.40
2011,01,13,08,44,5.40
2011,01,13,08,45,5.40
2011,01,13,08,46,5.40
2011,01,13,08,47,5.40
2011,01,13,08,48,5.40
2011,01,13,08,49,5.40
2011,01,13,08,50,5.40
2011,01,13,08,51,5.40
2011,01,13,08,52,5.40
2011,01,13,08,53,5.40
2011,01,13,08,54,5.40
2011,01,13,08,55,5.40
2011,01,13,08,56,5.40
2011,01,13,08,57,5.40
2011,01,13,08,58,5.40
2011,01,13,08,59,5.40
2011,01,13,09,00,5.30
2011,01,13,09,01,5.30
2011,01,13,09,02,5.30
2011,01,13,09,03,5.30
2011,01,13,09,04,5.30
2011,01,13,09,05,5.30
2011,01,13,09,06,5.30
2011,01,13,09,07,5.30
2011,01,13,09,08,5.30
2011,01,13,09,09,5.30
2011,01,13,09,10,5.30
2011,01,13,09,11,5.30
2011,01,13,09,12,5.40
2011,01,13,09,13,5.40
2011,01,13,09,14,5.40
2011,01,13,09,15,5.40
2011,01,13,09,16,5.40
2011,01,13,09,17,5.40
2011,01,13,09,18,5.40
2011,01,13,09,19,5.40
2011,01,13,09,20,5.40
2011,01,13,09,21,5.50
2011,01,13,09,22,5.50
2011,01,13,09,23,5.50
2011,01,13,09,24,5.50
2011,01,13,09,25,5.50
2011,01,13,09,26,5.50
2011,01,13,09,27,5.50
2011,01,13,09,28,5.50
2011,01,13,09,29,5.50
2011,01,13,09,30,5.50
2011,01,13,09,31,5.50
2011,01,13,09,32,5.50
2011,01,13,09,33,5.50
2011,01,13,09,34,5.50
2011,01,13,09,35,5.50
2011,01,13,09,36,5.50
2011,01,13,09,37,5.50
2011,01,13,09,38,5.50
2011,01,13,09,39,5.50
2011,01,13,09,40,5.50
2011,01,13,09,41,5.50
2011,01,13,09,42,5.60
2011,01,13,09,43,5.60
2011,01,13,09,44,5.60
2011,01,13,09,45,5.70
2011,01,13,09,46,5.70
2011,01,13,09,47,5.70
2011,01,13,09,48,5.70
2011,01,13,09,49,5.70
2011,01,13,09,50,5.70
2011,01,13,09,51,5.70
2011,01,13,09,52,5.70
2011,01,13,09,53,5.70
2011,01,13,09,54,5.80
2011,01,13,09,55,5.80
2011,01,13,09,56,5.80
2011,01,13,09,57,5.90
2011,01,13,09,58,5.90
2011,01,13,09,59,5.90
2011,01,13,10,00,6.00
2011,01,13,10,01,6.00
2011,01,13,10,02,6.00
2011,01,13,10,03,6.00
2011,01,13,10,04,6.00
2011,01,13,10,05,6.10
2011,01,13,10,06,6.10
2011,01,13,10,07,6.10
2011,01,13,10,08,6.10
2011,01,13,10,09,6.10
2011,01,13,10,10,6.10
2011,01,13,10,11,6.00
2011,01,13,10,12,6.00
2011,01,13,10,13,6.00
2011,01,13,10,14,6.00
2011,01,13,10,15,6.10
2011,01,13,10,16,6.10
2011,01,13,10,17,6.10
2011,01,13,10,18,6.20
2011,01,13,10,19,6.20
2011,01,13,10,20,6.30
2011,01,13,10,21,6.30
2011,01,13,10,22,6.40
2011,01,13,10,23,6.40
2011,01,13,10,24,6.40
2011,01,13,10,25,6.50
2011,01,13,10,26,6.60
2011,01,13,10,27,6.60
2011,01,13,10,28,6.70
2011,01,13,10,29,6.80
2011,01,13,10,30,6.80
2011,01,13,10,31,6.80
2011,01,13,10,32,6.80
2011,01,13,10,33,6.80
2011,01,13,10,34,6.90
2011,01,13,10,35,6.90
2011,01,13,10,36,7.00
2011,01,13,10,37,7.00
2011,01,13,10,38,7.10
2011,01,13,10,39,7.20
2011,01,13,10,40,7.20
2011,01,13,10,41,7.30
2011,01,13,10,42,7.30
2011,01,13,10,43,7.30
2011,01,13,10,44,7.30
2011,01,13,10,45,7.40
2011,01,13,10,46,7.40
2011,01,13,10,47,7.40
2011,01,13,10,48,7.50
2011,01,13,10,49,7.50
2011,01,13,10,50,7.60
2011,01,13,10,51,7.60
2011,01,13,10,52,7.60
2011,01,13,10,53,7.70
2011,01,13,10,54,7.70
2011,01,13,10,55,7.70
2011,01,13,10,56,7.70
2011,01,13,10,57,7.70
2011,01,13,10,58,7.70
2011,01,13,10,59,7.80
2011,01,13,11,00,7.80
2011,01,13,11,01,7.80
2011,01,13,11,02,7.90
2011,01,13,11,03,7.90
2011,01,13,11,04,7.90
2011,01,13,11,05,8.00
2011,01,13,11,06,8.00
2011,01,13,11,07,8.00
2011,01,13,11,08,8.00
2011,01,13,11,09,8.00
2011,01,13,11,10,8.00
2011,01,13,11,11,8.00
2011,01,13,11,12,8.00
2011,01,13,11,13,8.10
2011,01,13,11,14,8.10
2011,01,13,11,15,8.20
2011,01,13,11,16,8.20
2011,01,13,11,17,8.20
2011,01,13,11,18,8.20
2011,01,13,11,19,8.20
2011,01,13,11,20,8.20
2011,01,13,11,21,8.10
2011,01,13,11,22,8.10
2011,01,13,11,23,8.10
2011,01,13,11,24,8.10
2011,01,13,11,25,8.10
2011,01,13,11,26,8.10
2011,01,13,11,27,8.20
2011,01,13,11,28,8.20
2011,01,13,11,29,8.20
2011,01,13,11,30,8.20
2011,01,13,11,31,8.20
2011,01,13,11,32,8.20
2011,01,13,11,33,8.20
2011,01,13,11,34,8.20
2011,01,13,11,35,8.20
2011,01,13,11,36,8.20
2011,01,13,11,37,8.20
2011,01,13,11,38,8.20
2011,01,13,11,39,8.20
2011,01,13,11,40,8.20
2011,01,13,11,41,8.30
2011,01,13,11,42,8.30
2011,01,13,11,43,8.30
2011,01,13,11,44,8.30
2011,01,13,11,45,8.40
2011,01,13,11,46,8.40
2011,01,13,11,47,8.40
2011,01,13,11,48,8.40
2011,01,13,11,49,8.40
2011,01,13,11,50,8.40
2011,01,13,11,51,8.50
2011,01,13,11,52,8.50
2011,01,13,11,53,8.50
2011,01,13,11,54,8.50
2011,01,13,11,55,8.50
2011,01,13,11,56,8.50
2011,01,13,11,57,8.50
2011,01,13,11,58,8.50
2011,01,13,11,59,8.50
2011,01,13,12,00,8.60
2011,01,13,12,01,8.60
2011,01,13,12,02,8.60
2011,01,13,12,03,8.60
2011,01,13,12,04,8.60
2011,01,13,12,05,8.50
2011,01,13,12,06,8.50
2011,01,13,12,07,8.50
2011,01,13,12,08,8.50
2011,01,13,12,09,8.50
2011,01,13,12,10,8.50
2011,01,13,12,11,8.50
2011,01,13,12,12,8.50
2011,01,13,12,13,8.50
2011,01,13,12,14,8.50
2011,01,13,12,15,8.50
2011,01,13,12,16,8.50
2011,01,13,12,17,8.50
2011,01,13,12,18,8.50
2011,01,13,12,19,8.50
2011,01,13,12,20,8.50
2011,01,13,12,21,8.50
2011,01,13,12,22,8.50
2011,01,13,12,23,8.50
2011,01,13,12,24,8.60
2011,01,13,12,25,8.60
2011,01,13,12,26,8.60
2011,01,13,12,27,8.60
2011,01,13,12,28,8.60
2011,01,13,12,29,8.70
2011,01,13,12,30,8.70
2011,01,13,12,31,8.70
2011,01,13,12,32,8.70
2011,01,13,12,33,8.70
2011,01,13,12,34,8.70
2011,01,13,12,35,8.60
2011,01,13,12,36,8.50
2011,01,13,12,37,8.50
2011,01,13,12,38,8.50
2011,01,13,12,39,8.40
2011,01,13,12,40,8.40
2011,01,13,12,41,8.30
2011,01,13,12,42,8.30
2011,01,13,12,43,8.20
2011,01,13,12,44,8.20
2011,01,13,12,45,8.20
2011,01,13,12,46,8.20
2011,01,13,12,47,8.20
2011,01,13,12,48,8.20
2011,01,13,12,49,8.20
2011,01,13,12,50,8.20
2011,01,13,12,51,8.20
2011,01,13,12,52,8.20
2011,01,13,12,53,8.20
2011,01,13,12,54,8.20
2011,01,13,12,55,8.20
2011,01,13,12,56,8.20
2011,01,13,12,57,8.20
2011,01,13,12,58,8.20
2011,01,13,12,59,8.20
2011,01,13,13,00,8.20
2011,01,13,13,01,8.20
2011,01,13,13,02,8.30
2011,01,13,13,03,8.30
2011,01,13,13,04,8.30
2011,01,13,13,05,8.30
2011,01,13,13,06,8.30
2011,01,13,13,07,8.40
2011,01,13,13,08,8.40
2011,01,13,13,09,8.40
2011,01,13,13,10,8.40
2011,01,13,13,11,8.40
2011,01,13,13,12,8.50
2011,01,13,13,13,8.50
2011,01,13,13,14,8.60
2011,01,13,13,15,8.60
2011,01,13,13,16,8.60
2011,01,13,13,17,8.70
2011,01,13,13,18,8.70
2011,01,13,13,19,8.70
2011,01,13,13,20,8.70
2011,01,13,13,21,8.80
2011,01,13,13,22,8.80
2011,01,13,13,23,8.80
2011,01,13,13,24,8.80
2011,01,13,13,25,8.80
2011,01,13,13,26,8.80
2011,01,13,13,27,8.80
2011,01,13,13,28,8.80
2011,01,13,13,29,8.80
2011,01,13,13,30,8.80
2011,01,13,13,31,8.80
2011,01,13,13,32,8.80
2011,01,13,13,33,8.80
2011,01,13,13,34,8.80
2011,01,13,13,35,8.80
2011,01,13,13,36,8.80
2011,01,13,13,37,8.80
2011,01,13,13,38,8.80
2011,01,13,13,39,8.70
2011,01,13,13,40,8.70
2011,01,13,13,41,8.70
2011,01,13,13,42,8.70
2011,01,13,13,43,8.70
2011,01,13,13,44,8.60
2011,01,13,13,45,8.60
2011,01,13,13,46,8.50
2011,01,13,13,47,8.40
2011,01,13,13,48,8.30
2011,01,13,13,49,8.30
2011,01,13,13,50,8.20
2011,01,13,13,51,8.20
2011,01,13,13,52,8.20
2011,01,13,13,53,8.10
2011,01,13,13,54,8.10
2011,01,13,13,55,8.10
2011,01,13,13,56,8.10
2011,01,13,13,57,8.10
2011,01,13,13,58,8.10
2011,01,13,13,59,8.10
2011,01,13,14,00,8.10
2011,01,13,14,01,8.20
2011,01,13,14,02,8.20
2011,01,13,14,03,8.20
2011,01,13,14,04,8.20
2011,01,13,14,05,8.20
2011,01,13,14,06,8.30
2011,01,13,14,07,8.30
2011,01,13,14,08,8.30
2011,01,13,14,09,8.40
2011,01,13,14,10,8.40
2011,01,13,14,11,8.40
2011,01,13,14,12,8.30
2011,01,13,14,13,8.20
2011,01,13,14,14,8.20
2011,01,13,14,15,8.10
2011,01,13,14,16,8.10
2011,01,13,14,17,8.10
2011,01,13,14,18,8.10
2011,01,13,14,19,8.10
2011,01,13,14,20,8.00
2011,01,13,14,21,8.00
2011,01,13,14,22,8.00
2011,01,13,14,23,8.00
2011,01,13,14,24,8.00
2011,01,13,14,25,8.00
2011,01,13,14,26,8.00
2011,01,13,14,27,8.00
2011,01,13,14,28,8.10
2011,01,13,14,29,8.10
2011,01,13,14,30,8.10
2011,01,13,14,31,8.10
2011,01,13,14,32,8.00
2011,01,13,14,33,8.00
2011,01,13,14,34,8.00
2011,01,13,14,35,7.90
2011,01,13,14,36,7.90
2011,01,13,14,37,7.90
2011,01,13,14,38,7.80
2011,01,13,14,39,7.80
2011,01,13,14,40,7.80
2011,01,13,14,41,7.80
2011,01,13,14,42,7.80
2011,01,13,14,43,7.80
2011,01,13,14,44,7.80
2011,01,13,14,45,7.70
2011,01,13,14,46,7.70
2011,01,13,14,47,7.70
2011,01,13,14,48,7.70
2011,01,13,14,49,7.70
2011,01,13,14,50,7.70
2011,01,13,14,51,7.70
2011,01,13,14,52,7.70
2011,01,13,14,53,7.70
2011,01,13,14,54,7.70
2011,01,13,14,55,7.70
2011,01,13,14,56,7.70
2011,01,13,14,57,7.70
2011,01,13,14,58,7.70
2011,01,13,14,59,7.70
2011,01,13,15,00,7.70
2011,01,13,15,01,7.70
2011,01,13,15,02,7.80
2011,01,13,15,03,7.80
2011,01,13,15,04,7.80
2011,01,13,15,05,7.80
2011,01,13,15,06,7.80
2011,01,13,15,07,7.80
2011,01,13,15,08,7.80
2011,01,13,15,09,7.80
2011,01,13,15,10,7.80
2011,01,13,15,11,7.80
2011,01,13,15,12,7.80
2011,01,13,15,13,7.80
2011,01,13,15,14,7.80
2011,01,13,15,15,7.80
2011,01,13,15,16,7.80
2011,01,13,15,17,7.80
2011,01,13,15,18,7.80
2011,01,13,15,19,7.80
2011,01,13,15,20,7.80
2011,01,13,15,21,7.80
2011,01,13,15,22,7.80
2011,01,13,15,23,7.80
2011,01,13,15,24,7.80
2011,01,13,15,25,7.80
2011,01,13,15,26,7.80
2011,01,13,15,27,7.80
2011,01,13,15,28,7.80
2011,01,13,15,29,7.80
2011,01,13,15,30,7.80
2011,01,13,15,31,7.80
2011,01,13,15,32,7.80
2011,01,13,15,33,7.90
2011,01,13,15,34,7.90
2011,01,13,15,35,7.90
2011,01,13,15,36,7.90
2011,01,13,15,37,8.00
2011,01,13,15,38,8.00
2011,01,13,15,39,8.00
2011,01,13,15,40,8.10
2011,01,13,15,41,8.10
2011,01,13,15,42,8.10
2011,01,13,15,43,8.10
2011,01,13,15,44,8.10
2011,01,13,15,45,8.10
2011,01,13,15,46,8.10
2011,01,13,15,47,8.00
2011,01,13,15,48,8.00
2011,01,13,15,49,8.00
2011,01,13,15,50,8.10
2011,01,13,15,51,8.10
2011,01,13,15,52,8.10
2011,01,13,15,53,8.20
2011,01,13,15,54,8.20
2011,01,13,15,55,8.20
2011,01,13,15,56,8.20
2011,01,13,15,57,8.20
2011,01,13,15,58,8.20
2011,01,13,15,59,8.20
2011,01,13,16,00,8.20
2011,01,13,16,01,8.20
2011,01,13,16,02,8.20
2011,01,13,16,03,8.20
2011,01,13,16,04,8.30
2011,01,13,16,05,8.30
2011,01,13,16,06,8.30
2011,01,13,16,07,8.30
2011,01,13,16,08,8.30
2011,01,13,16,09,8.30
2011,01,13,16,10,8.30
2011,01,13,16,11,8.30
2011,01,13,16,12,8.40
2011,01,13,16,13,8.40
2011,01,13,16,14,8.40
2011,01,13,16,15,8.40
2011,01,13,16,16,8.50
2011,01,13,16,17,8.50
2011,01,13,16,18,8.50
2011,01,13,16,19,8.50
2011,01,13,16,20,8.50
2011,01,13,16,21,8.50
2011,01,13,16,22,8.50
2011,01,13,16,23,8.50
2011,01,13,16,24,8.50
2011,01,13,16,25,8.40
2011,01,13,16,26,8.40
2011,01,13,16,27,8.40
2011,01,13,16,28,8.40
2011,01,13,16,29,8.40
2011,01,13,16,30,8.40
2011,01,13,16,31,8.40
2011,01,13,16,32,8.50
2011,01,13,16,33,8.50
2011,01,13,16,34,8.60
2011,01,13,16,35,8.60
2011,01,13,16,36,8.70
2011,01,13,16,37,8.70
2011,01,13,16,38,8.70
2011,01,13,16,39,8.70
2011,01,13,16,40,8.70
2011,01,13,16,41,8.70
2011,01,13,16,42,8.70
2011,01,13,16,43,8.70
2011,01,13,16,44,8.70
2011,01,13,16,45,8.70
2011,01,13,16,46,8.70
2011,01,13,16,47,8.70
2011,01,13,16,48,8.70
2011,01,13,16,49,8.70
2011,01,13,16,50,8.70
2011,01,13,16,51,8.70
2011,01,13,16,52,8.70
2011,01,13,16,53,8.80
2011,01,13,16,54,8.80
2011,01,13,16,55,8.90
2011,01,13,16,56,8.90
2011,01,13,16,57,9.00
2011,01,13,16,58,9.00
2011,01,13,16,59,9.00
2011,01,13,17,00,9.10
2011,01,13,17,01,9.10
2011,01,13,17,02,9.10
2011,01,13,17,03,9.10
2011,01,13,17,04,9.10
2011,01,13,17,05,9.10
2011,01,13,17,06,9.10
2011,01,13,17,07,9.10
2011,01,13,17,08,9.10
2011,01,13,17,09,9.20
2011,01,13,17,10,9.20
2011,01,13,17,11,9.20
2011,01,13,17,12,9.20
2011,01,13,17,13,9.20
2011,01,13,17,14,9.20
2011,01,13,17,15,9.20
2011,01,13,17,16,9.20
2011,01,13,17,17,9.20
2011,01,13,17,18,9.30
2011,01,13,17,19,9.30
2011,01,13,17,20,9.30
2011,01,13,17,21,9.30
2011,01,13,17,22,9.30
2011,01,13,17,23,9.30
2011,01,13,17,24,9.30
2011,01,13,17,25,9.30
2011,01,13,17,26,9.30
2011,01,13,17,27,9.30
2011,01,13,17,28,9.30
2011,01,13,17,29,9.40
2011,01,13,17,30,9.40
2011,01,13,17,31,9.30
2011,01,13,17,32,9.30
2011,01,13,17,33,9.30
2011,01,13,17,34,9.30
2011,01,13,17,35,9.30
2011,01,13,17,36,9.40
2011,01,13,17,37,9.30
2011,01,13,17,38,9.30
2011,01,13,17,39,9.30
2011,01,13,17,40,9.30
2011,01,13,17,41,9.30
2011,01,13,17,42,9.30
2011,01,13,17,43,9.30
2011,01,13,17,44,9.30
2011,01,13,17,45,9.30
2011,01,13,17,46,9.30
2011,01,13,17,47,9.30
2011,01,13,17,48,9.30
2011,01,13,17,49,9.30
2011,01,13,17,50,9.30
2011,01,13,17,51,9.40
2011,01,13,17,52,9.40
2011,01,13,17,53,9.40
2011,01,13,17,54,9.40
2011,01,13,17,55,9.40
2011,01,13,17,56,9.40
2011,01,13,17,57,9.40
2011,01,13,17,58,9.40
2011,01,13,17,59,9.40
2011,01,13,18,00,9.40
2011,01,13,18,01,9.40
2011,01,13,18,02,9.40
2011,01,13,18,03,9.40
2011,01,13,18,04,9.30
2011,01,13,18,05,9.30
2011,01,13,18,06,9.30
2011,01,13,18,07,9.30
2011,01,13,18,08,9.30
2011,01,13,18,09,9.30
2011,01,13,18,10,9.30
2011,01,13,18,11,9.30
2011,01,13,18,12,9.30
2011,01,13,18,13,9.30
2011,01,13,18,14,9.30
2011,01,13,18,15,9.30
2011,01,13,18,16,9.30
2011,01,13,18,17,9.30
2011,01,13,18,18,9.20
2011,01,13,18,19,9.20
2011,01,13,18,20,9.20
2011,01,13,18,21,9.20
2011,01,13,18,22,9.20
2011,01,13,18,23,9.20
2011,01,13,18,24,9.20
2011,01,13,18,25,9.20
2011,01,13,18,26,9.20
2011,01,13,18,27,9.20
2011,01,13,18,28,9.20
2011,01,13,18,29,9.20
2011,01,13,18,30,9.20
2011,01,13,18,31,9.20
2011,01,13,18,32,9.20
2011,01,13,18,33,9.20
2011,01,13,18,34,9.20
2011,01,13,18,35,9.20
2011,01,13,18,36,9.20
2011,01,13,18,37,9.20
2011,01,13,18,38,9.20
2011,01,13,18,39,9.20
2011,01,13,18,40,9.20
2011,01,13,18,41,9.20
2011,01,13,18,42,9.20
2011,01,13,18,43,9.30
2011,01,13,18,44,9.30
2011,01,13,18,45,9.30
2011,01,13,18,46,9.30
2011,01,13,18,47,9.30
2011,01,13,18,48,9.30
2011,01,13,18,49,9.40
2011,01,13,18,50,9.40
2011,01,13,18,51,9.40
2011,01,13,18,52,9.50
2011,01,13,18,53,9.50
2011,01,13,18,54,9.50
2011,01,13,18,55,9.60
2011,01,13,18,56,9.60
2011,01,13,18,57,9.60
2011,01,13,18,58,9.50
2011,01,13,18,59,9.50
2011,01,13,19,00,9.50
2011,01,13,19,01,9.50
2011,01,13,19,02,9.60
2011,01,13,19,03,9.60
2011,01,13,19,04,9.60
2011,01,13,19,05,9.70
2011,01,13,19,06,9.70
2011,01,13,19,07,9.70
2011,01,13,19,08,9.70
2011,01,13,19,09,9.70
2011,01,13,19,10,9.70
2011,01,13,19,11,9.80
2011,01,13,19,12,9.80
2011,01,13,19,13,9.80
2011,01,13,19,14,9.80
2011,01,13,19,15,9.80
2011,01,13,19,16,9.80
2011,01,13,19,17,9.80
2011,01,13,19,18,9.80
2011,01,13,19,19,9.80
2011,01,13,19,20,9.80
2011,01,13,19,21,9.80
2011,01,13,19,22,9.80
2011,01,13,19,23,9.80
2011,01,13,19,24,9.80
2011,01,13,19,25,9.80
2011,01,13,19,26,9.80
2011,01,13,19,27,9.80
2011,01,13,19,28,9.90
2011,01,13,19,29,10.00
2011,01,13,19,30,10.10
2011,01,13,19,31,10.20
2011,01,13,19,32,10.30
2011,01,13,19,33,10.30
2011,01,13,19,34,10.40
2011,01,13,19,35,10.40
2011,01,13,19,36,10.40
2011,01,13,19,37,10.40
2011,01,13,19,38,10.40
2011,01,13,19,39,10.40
2011,01,13,19,40,10.40
2011,01,13,19,41,10.50
2011,01,13,19,42,10.60
2011,01,13,19,43,10.60
2011,01,13,19,44,10.60
2011,01,13,19,45,10.60
2011,01,13,19,46,10.60
2011,01,13,19,47,10.60
2011,01,13,19,48,10.60
2011,01,13,19,49,10.60
2011,01,13,19,50,10.60
2011,01,13,19,51,10.60
2011,01,13,19,52,10.60
2011,01,13,19,53,10.60
2011,01,13,19,54,10.60
2011,01,13,19,55,10.60
2011,01,13,19,56,10.60
2011,01,13,19,57,10.60
2011,01,13,19,58,10.60
2011,01,13,19,59,10.60
2011,01,13,20,00,10.60
2011,01,13,20,01,10.50
2011,01,13,20,02,10.40
2011,01,13,20,03,10.40
2011,01,13,20,04,10.40
2011,01,13,20,05,10.40
2011,01,13,20,06,10.40
2011,01,13,20,07,10.40
2011,01,13,20,08,10.40
2011,01,13,20,09,10.40
2011,01,13,20,10,10.50
2011,01,13,20,11,10.60
2011,01,13,20,12,10.60
2011,01,13,20,13,10.60
2011,01,13,20,14,10.60
2011,01,13,20,15,10.60
2011,01,13,20,16,10.60
2011,01,13,20,17,10.60
2011,01,13,20,18,10.60
2011,01,13,20,19,10.60
2011,01,13,20,20,10.60
2011,01,13,20,21,10.60
2011,01,13,20,22,10.60
2011,01,13,20,23,10.60
2011,01,13,20,24,10.60
2011,01,13,20,25,10.60
2011,01,13,20,26,10.60
2011,01,13,20,27,10.60
2011,01,13,20,28,10.60
2011,01,13,20,29,10.60
2011,01,13,20,30,10.60
2011,01,13,20,31,10.60
2011,01,13,20,32,10.60
2011,01,13,20,33,10.60
2011,01,13,20,34,10.60
2011,01,13,20,35,10.60